{"data":{"norad_id":66659,"intl_designator":"2025-274K","name":"JACK K","alt_names":[],"object_type":"PAYLOAD","status":"ACTIVE","operator":null,"country":"SKOR","launch_date":"2025-11-26","launch_site_code":"NSC","launch_vehicle":null,"mission":null,"orbit_class":"UNKNOWN","rcs_meters":null,"size_class":null,"mass_kg":null,"dimensions":null,"purposes":[],"wikipedia_slug":null,"has_3d_model":false,"image_url":null,"decayed_at":null,"tle_current":{"epoch":"2026-09-20T14:03:05.930784Z","epoch_age_seconds":113622,"freshness":"FRESH","line1":"1 66659U 25274K   26263.58548531  .00000949  00000+0  93928-4 0  9996","line2":"2 66659  97.7488 191.6849 0014722  63.2979 296.9746 14.94134867 44476","mean_motion":14.94134867,"eccentricity":0.0014722,"inclination_deg":97.7488,"raan_deg":191.6849,"arg_perigee_deg":63.2979,"mean_anomaly_deg":296.9746,"bstar":9.3928e-5,"rev_number":4447,"period_min":96.376841997624,"perigee_km":574.80812076173,"apogee_km":595.31055606054,"semimajor_km":6963.1963384111,"source":"CELESTRAK","updated_at":"2026-09-21T09:00:16.117412Z"}}}